List of all images

Images may be removed, most commonly when replaced by a higher quality version

« Prev | Next »

Date AddedImageMetadataDownload
2026/08/10gigachad one leg dance pose564x1001 27KB JPEG
2026/08/10gigachad lean back raise arms1080x1235 35KB JPEG
2026/08/10gigachad tilt head back arm up dance1037x1200 68KB JPEG
2026/08/10gigachad lean backwards drunk1080x1312 48KB JPEG
2026/08/10gigachad ornate mirror frame680x824 140KB JPEG
2026/08/10gigachad lightning strike flying622x778 31KB JPEG
2026/08/10gigachad arrows halo959x1157 73KB JPEG
2026/08/10gigachad stool arm on head1524x2048 105KB JPEG
2026/08/09gigachad canada built on genocide poster645x720 43KB WEBP
2026/08/09gigachad calculator876x720 79KB WEBP
2026/08/09ancient gigachad crushed under giant maga hat904x714 69KB WEBP
2026/08/09ancient gigachad taxation is theft anticommunist christian pope hat904x720 92KB WEBP
2026/08/09free market consensual sex taxation is theft gigachad776x720 91KB WEBP
2026/08/09rna codon wheel amino acids genetics gigachad747x720 57KB WEBP
2026/08/09ancient soviet confederate gigachad aryan Brezhnev vodka1024x808 467KB JPEG
2026/08/09gigachad cameraman maga groyper gun904x648 43KB WEBP
2026/08/09Gigachad fedora underground jew grate tunnel dominos pizza646x720 48KB WEBP
2026/08/09top hat gigachad highway traffic london680x720 96KB WEBP
2026/08/09gigachad lightning wizard electrocutes mexican soyjak731x720 68KB WEBP
2026/08/09gigachad christian movements schism church comic904x720 70KB WEBP
2026/08/09young blonde aryan gigachad color890x720 65KB WEBP
2026/08/09wide bald gigachad smiling clay heads616x720 72KB WEBP
2026/08/09gigachad books Elliot Rodger pound nietzsche dawkins schrodinger milton894x720 128KB WEBP
2026/08/09gigachad blue glow651x720 43KB WEBP
2026/08/09gigachad coffee swastika pin904x616 29KB WEBP
2026/08/09gigachad amarna hat730x720 40KB WEBP
2026/08/09gigachad eugenics building baby904x671 86KB WEBP
2026/08/09Gigachad seated reading suit718x720 50KB WEBP
2026/08/09gigachad seagram building architect sad581x720 38KB WEBP
2026/08/09rich gigachad cocaine bricks drug smuggler904x575 91KB WEBP
2026/08/09gigachad sniper rifle904x511 72KB WEBP
2026/08/09dark gigachad glowing spiral collage images904x600 111KB WEBP
2026/08/09gigachad glitch space sun fire904x680 53KB WEBP
2026/08/09gigachad giant worker blueprints city plane norman rockwell528x720 87KB WEBP
2026/08/09gigachad amazon hat smiling730x720 40KB WEBP
2026/08/09Gigachad steampunk goggles anime girls loli481x720 52KB WEBP
2026/08/09nazi book burning gigachad904x657 147KB WEBP
2026/08/09indiana jones gigachad496x720 39KB WEBP
2026/08/09winter beanie gigachad635x720 114KB WEBP
2026/08/09spooky swastika eyes gigachad904x510 25KB WEBP
2026/08/09mountain dew doritos obey rust soldier gigachad692x720 86KB WEBP
2026/08/09red bull scream gigachad520x720 26KB WEBP
2026/08/09boba bubble tea gigachad723x720 57KB WEBP
2026/08/09dictaphone record audio gigachad827x720 42KB WEBP
2026/08/09gigachad smiling nuclear explosion632x720 60KB WEBP
2026/08/09gigachad intolerant clean streets report filth678x720 28KB WEBP
2026/08/09sad gigachad crying904x720 47KB WEBP
2026/08/09Gigachad driving car night623x415 24KB JPEG
2026/08/09gigachad suicide bomber hydroelectric dam904x591 97KB WEBP
2026/08/09gigachad one-arm swastika handstand678x720 10KB WEBP
2026/08/09roar gigachad pyramid sky laser agartha404x720 111KB WEBP
2026/08/09cross chain necklace gigachad priest450x550 21KB JPEG
2026/08/09glitched gigachad face grainy smile static noise fuzzy566x720 198KB WEBP
2026/08/09amarna forum gigachad wire VR interface helmet cyberpunk568x720 122KB WEBP
2026/08/09gigachad mushroom cloud nuke904x680 81KB WEBP
2026/08/09fat gigachad burger tv remote crown893x720 76KB WEBP
2026/08/09alien Nostromo spaceship corridor gigachad weyland yutani cosy882x720 138KB WEBP
2026/08/09gigachad Brenton Tarrant christchurch mosque shooter904x511 74KB WEBP
2026/08/09gigachad acrobatic ropes hanging four troonjaks592x720 42KB WEBP
2026/08/09gigachad cozy blanket apocalypse mushroom cloud nuke744x720 82KB WEBP
2026/08/09gigachad orb eyes624x720 29KB WEBP
2026/08/09gigachad glitched sleeping cap insomnia618x720 90KB WEBP
2026/08/09sunglasses pirate gigachad642x720 49KB WEBP
2026/08/09gigachad cute pink anime girls bedroom dead troonjak790x720 130KB WEBP
2026/08/09gigachad painting beret palette584x720 58KB WEBP
2026/08/09old gigachad alchemist magician501x720 86KB WEBP
2026/08/09german luftwaffe officer gigachad576x720 69KB WEBP
2026/08/09gigachad cube720x720 29KB WEBP
2026/08/09gigachad real raw news tv newsroom896x720 62KB WEBP
2026/08/09gigachad defendant handcuffs courtroom683x720 70KB WEBP
2026/08/09gigachad bowl cut swastika sunglasses smiling614x720 49KB WEBP
2026/08/09blushing gigachad717x720 23KB WEBP
2026/08/09gigachad programmer glasses laptop856x720 58KB WEBP
2026/08/09gigachad bowl cut swastika sunglasses grinning614x720 49KB WEBP
2026/08/09gigachad hitler costin alamariu bap606x720 120KB WEBP
2026/08/09japanese poet basho gigachad542x720 92KB WEBP
2026/08/09blue insomnia gigachad closet539x720 20KB WEBP
2026/08/09gigachad music composer Johann Sebastian Bach584x720 46KB WEBP
2026/08/09gigachad magic green pyramid crystal gem720x720 160KB WEBP
2026/08/09gigachad golden retriever dog598x720 48KB WEBP
2026/08/09Hawaiian shirt sunglasses cia gigachad torture chamber720x720 161KB WEBP
2026/08/09gigachad sign billions for space pennies for hungry584x720 38KB WEBP
2026/08/09fat gigachad chair fried chicken bucket863x720 62KB WEBP
2026/08/09mongolian gigachad yurt grab774x720 72KB WEBP
2026/08/09mormon gigachad suit book plan salvation nametag622x698 48KB JPEG
2026/08/09gigachad bleeding crying blood forehead symbol656x720 37KB WEBP
2026/08/09gigachad phone saber fate623x720 49KB WEBP
2026/08/09blue doctor manhattan gigachad mars888x720 84KB WEBP
2026/08/09gigachad exploded head coffee pastry screw720x720 50KB WEBP
2026/08/09gigachad nuremberg nazi eagle576x720 37KB WEBP
2026/08/09gigachad deal handshake904x626 51KB WEBP
2026/08/09evidence bag gigachad phone904x455 52KB WEBP
2026/08/09ss nazi gigachad anime girl Usada Pekora hololive904x511 59KB WEBP
2026/08/09hooded gigachad typography Noordzij cube temple904x686 85KB WEBP
2026/08/09gigachad hippie make war not love746x720 49KB WEBP
2026/08/09gigachad rear mirror car904x512 51KB WEBP
2026/08/09gigachad doorstop wedge720x720 78KB WEBP
2026/08/09gigachad dakimakura coconut nekopara anime body pillow624x720 77KB WEBP
2026/08/09gigachad emperor julius caesar735x960 92KB JPEG
2026/08/09bronze age pervert bap gigachad622x856 43KB JPEG

Images 201-300 of 4862

« Prev | Next »